Location: Moscow
(55.7500°N, 37.5830°E)
Time: 19:16:31
(UTC+03:00)

Transit 2A Rocket - Pass Details

Date: 30 November 2021
Orbit: 584 x 917 km, 66.7° (Epoch: 23 January)

Event Time Altitude Azimuth Distance (km) Brightness Sun altitude
Rises 17:28:03 0° 316° (NW) 3,566 8.8 -11.1°
Reaches altitude 10° 17:30:39 10° 312° (NW) 2,621 8.1 -11.4°
Maximum altitude 17:36:38 56° 237° (WSW) 1,069 6.1 -12.2°
Drops below altitude 10° 17:42:22 10° 160° (SSE) 2,512 7.7 -13.0°
Sets 17:44:48 0° 157° (SSE) 3,406 8.3 -13.3°
